Regional Weather Roundup
Issued by NWS Nashville, TN

Home | Current Version | Previous Version | Text Only | Print | Product List | Glossary On
Versions: 1 2 3 4 5 6 7 8 9 10 11 12 13 14 15 16 17 18 19 20 21 22 23 24 25 26 27 28 29 30 31 32 33 34 35 36 37 38 39 40 41 42 43 44 45 46 47 48 49 50
000
ASUS44 KOHX 300710
RWROHX
MIDDLE TENNESSEE HOURLY WEATHER ROUNDUP
NATIONAL WEATHER SERVICE NASHVILLE TN
200 AM CDT WED JUL 30 2014

NOTE: "FAIR" INDICATES FEW OR NO CLOUDS BELOW 12,000 FEET WITH
NO SIGNIFICANT WEATHER AND/OR OBSTRUCTIONS TO VISIBILITY.

* THESE REPORTS ARE NOT UNDER NWS QUALITY CONTROL AND MAY NOT
  REPORT WEATHER SUCH AS PRECIPITATION AND FOG.


TNZ005>011-023>034-057-059-062>066-078-080-300800
...NORTHERN MIDDLE TENNESSEE...

CITY           SKY/WX    TMP DP  RH WIND       PRES   REMARKS
CLARKSVILLE    CLEAR     58  54  86 CALM      30.10S
CROSSVILLE     CLEAR     54  51  90 CALM      30.13S
DICKSON        CLEAR     57  54  88 CALM      30.11S
LEBANON        CLEAR     58  55  89 CALM      30.09S
LIVINGSTON       N/A     56  52  86 CALM      30.11F
NASHVILLE      CLEAR     61  56  83 CALM      30.10S
WEST NASHVILLE   N/A     61  61 100 CALM      30.10S
PORTLAND       CLEAR     57  55  94 CALM      30.10S
SMYRNA         CLEAR     58  57  96 CALM      30.11S
SPARTA         CLEAR     54  54 100 CALM      30.10S
$$
TNZ056-058-060-061-075>077-079-093>097-300800
...SOUTHERN MIDDLE TENNESSEE...

CITY           SKY/WX    TMP DP  RH WIND       PRES   REMARKS
COLUMBIA       CLEAR     57  55  94 CALM      30.10R
FAYETTEVILLE   CLEAR     57  54  88 CALM      30.10S
LEWISBURG      CLEAR     56  53  89 CALM      30.10S
MCMINNVILLE    MOCLDY    55  55 100 CALM      30.11S VSB 1/2
MURFREESBORO   CLEAR     61  58  90 CALM      30.10S
SHELBYVILLE    CLEAR     57  55  94 CALM      30.11S
TULLAHOMA      CLEAR     54  52  94 CALM      30.12S
WINCHESTER     CLEAR     54  54 100 CALM      30.11S
$$


...KEY TO REMARKS...
VSB - VISIBILITY IN MILES
WCI - WIND CHILL INDEX
HX  - HEAT INDEX




USA.gov is the U.S. government's official web portal to all federal, state and local government web resources and services.